Location: Augirein
(42.9320°N, 0.9181°E)
Time: 02:52:24
(UTC+00:00)

USA 229 DEB - Pass Details

Date: 20 June 2021
Orbit: 955 x 1257 km, 63.4° (Epoch: 25 July)

Event Time Altitude Azimuth Distance (km) Brightness Sun altitude
Exits shadow 00:22:26 47° 203° (SSW) 1,289 3.7 -23.4°
Maximum altitude 00:24:26 81° 124° (SE) 1,024 3.5 -23.4°
Drops below altitude 10° 00:31:13 10° 38° (NE) 2,890 6.8 -23.2°
Sets 00:33:57 0° 37° (NE) 3,894 7.6 -23.1°
